| time (UTC) | temp C | wind direction | speed KPH | gust KPH | rain 1hr cm | rain 24hr cm | rain mn cm | humidity % | barometer mb |
| 20260507171548 | 15 | 50 | 11.3 | 14.5 | 0.00 | 0.00 | 0.00 | 100 | |
| 20260507170048 | 16 | 56 | 8.0 | 11.3 | 0.00 | 0.00 | 0.00 | 100 | |
| 20260507164548 | 15 | 42 | 11.3 | 16.1 | 0.00 | 0.00 | 0.00 | 100 | |
| 20260507163048 | 15 | 63 | 3.2 | 12.9 | 0.00 | 0.00 | 0.00 | 100 | |
| 20260507161548 | 15 | 49 | 6.4 | 14.5 | 0.00 | 0.00 | 0.00 | 100 | |
| 20260507160048 | 14 | 35 | 4.8 | 14.5 | 0.00 | 0.00 | 0.00 | 100 | |
| 20260507154548 | 15 | 101 | 4.8 | 14.5 | 0.00 | 0.00 | 0.00 | 100 | |
| 20260507153048 | 16 | 122 | 4.8 | 11.3 | 0.00 | 0.00 | 0.00 | 100 | |
| 20260507151548 | 15 | 64 | 12.9 | 14.5 | 0.00 | 0.00 | 0.00 | 100 | |
| 20260507150048 | 12 | 78 | 11.3 | 16.1 | 0.00 | 0.03 | 0.00 | 100 | |
| 20260507144548 | 12 | 40 | 9.7 | 14.5 | 0.00 | 0.03 | 0.00 | 100 | |
| 20260507143048 | 11 | 118 | 3.2 | 17.7 | 0.00 | 0.03 | 0.00 | 100 | |
| 20260507141548 | 12 | 66 | 8.0 | 16.1 | 0.00 | 0.03 | 0.00 | 100 | |
| 20260507140048 | 12 | 66 | 14.5 | 19.3 | 0.00 | 0.03 | 0.00 | 100 | |
| 20260507134548 | 12 | 45 | 12.9 | 19.3 | 0.00 | 0.03 | 0.00 | 100 | |
| 20260507133049 | 12 | 94 | 4.8 | 16.1 | 0.00 | 0.03 | 0.00 | 100 | |
| 20260507131549 | 12 | 84 | 6.4 | 17.7 | 0.00 | 0.03 | 0.00 | 100 | |
| 20260507130049 | 11 | 68 | 16.1 | 19.3 | 0.00 | 0.03 | 0.00 | 100 | |
| 20260507124549 | 11 | 22 | 6.4 | 14.5 | 0.00 | 0.03 | 0.00 | 100 | |
| 20260507123049 | 11 | 59 | 14.5 | 14.5 | 0.00 | 0.03 | 0.00 | 100 | |
| 20260507121549 | 10 | 28 | 8.0 | 16.1 | 0.00 | 0.03 | 0.00 | 100 | |
| 20260507120049 | 10 | 112 | 4.8 | 12.9 | 0.00 | 0.05 | 0.00 | 100 | |
| 20260507114549 | 10 | 43 | 1.6 | 12.9 | 0.00 | 0.05 | 0.00 | 100 | |
| 20260507113049 | 11 | 61 | 11.3 | 14.5 | 0.00 | 0.05 | 0.00 | 100 | |
| 20260507111549 | 11 | 22 | 4.8 | 16.1 | 0.00 | 0.05 | 0.00 | 100 | |
| 20260507110049 | 10 | 54 | 9.7 | 16.1 | 0.00 | 0.05 | 0.00 | 100 | |
| 20260507104549 | 11 | 87 | 8.0 | 20.9 | 0.00 | 0.05 | 0.00 | 100 | |
| 20260507103049 | 11 | 94 | 8.0 | 17.7 | 0.00 | 0.05 | 0.00 | 100 | |
| 20260507101549 | 10 | 53 | 4.8 | 19.3 | 0.00 | 0.05 | 0.00 | 100 | |
| 20260507100049 | 10 | 39 | 11.3 | 17.7 | 0.00 | 0.05 | 0.00 | 100 | |
| 20260507094549 | 11 | 49 | 12.9 | 20.9 | 0.00 | 0.05 | 0.00 | 100 | |
| 20260507093049 | 11 | 74 | 8.0 | 20.9 | 0.00 | 0.05 | 0.00 | 100 | |
| 20260507091549 | 11 | 120 | 12.9 | 16.1 | 0.00 | 0.05 | 0.00 | 100 | |
| 20260507090049 | 11 | 94 | 11.3 | 19.3 | 0.00 | 0.05 | 0.00 | 100 | |
| 20260507084550 | 11 | 43 | 6.4 | 19.3 | 0.00 | 0.05 | 0.00 | 100 | |
| 20260507083050 | 11 | 67 | 9.7 | 20.9 | 0.00 | 0.05 | 0.00 | 100 | |
| 20260507081550 | 11 | 113 | 8.0 | 22.5 | 0.00 | 0.05 | 0.00 | 100 | |
| 20260507080050 | 11 | 78 | 3.2 | 17.7 | 0.00 | 0.05 | 0.00 | 100 | |
| 20260507074550 | 11 | 98 | 12.9 | 20.9 | 0.00 | 0.05 | 0.00 | 100 | |
| 20260507073050 | 11 | 54 | 9.7 | 19.3 | 0.00 | 0.05 | 0.00 | 100 | |
| 20260507071550 | 10 | 102 | 6.4 | 20.9 | 0.00 | 0.05 | 0.00 | 100 | |
| 20260507070050 | 10 | 135 | 1.6 | 19.3 | 0.00 | 0.05 | 0.00 | 100 | |
| 20260507064550 | 10 | 61 | 12.9 | 17.7 | 0.00 | 0.05 | 0.00 | 100 | |
| 20260507063050 | 10 | 56 | 6.4 | 14.5 | 0.00 | 0.05 | 0.00 | 100 | |
| 20260507061550 | 9 | 104 | 6.4 | 16.1 | 0.00 | 0.05 | 0.00 | 100 | |
| 20260507060050 | 9 | 63 | 8.0 | 16.1 | 0.00 | 0.05 | 0.00 | 100 | |
| 20260507054550 | 8 | 81 | 12.9 | 20.9 | 0.00 | 0.05 | 0.00 | 100 | |
| 20260507053050 | 8 | 104 | 6.4 | 17.7 | 0.00 | 0.05 | 0.00 | 100 | |
| 20260507051550 | 8 | 74 | 9.7 | 17.7 | 0.00 | 0.05 | 0.00 | 100 | |
| 20260507050050 | 8 | 82 | 3.2 | 19.3 | 0.00 | 0.05 | 0.00 | 100 | |
| 20260507044550 | 8 | 33 | 6.4 | 20.9 | 0.00 | 0.05 | 0.00 | 100 | |
| 20260507043050 | 8 | 56 | 6.4 | 20.9 | 0.00 | 0.05 | 0.00 | 100 | |
| 20260507041550 | 7 | 53 | 11.3 | 14.5 | 0.00 | 0.05 | 0.00 | 100 | |
| 20260507040050 | 7 | 26 | 3.2 | 14.5 | 0.00 | 0.05 | 0.00 | 100 | |
| 20260507034551 | 7 | 54 | 0.0 | 11.3 | 0.00 | 0.05 | 0.00 | 100 | |
| 20260507033051 | 7 | 15 | 9.7 | 16.1 | 0.00 | 0.05 | 0.00 | 100 | |
| 20260507031551 | 7 | 112 | 6.4 | 12.9 | 0.00 | 0.05 | 0.00 | 100 | |
| 20260507030051 | 7 | 157 | 9.7 | 14.5 | 0.00 | 0.05 | 0.00 | 100 | |
| 20260507024551 | 7 | 97 | 6.4 | 14.5 | 0.00 | 0.05 | 0.00 | 100 | |
| 20260507023051 | 7 | 63 | 1.6 | 16.1 | 0.00 | 0.05 | 0.00 | 100 | |
| 20260507021551 | 7 | 94 | 16.1 | 19.3 | 0.00 | 0.05 | 0.00 | 100 | |
| 20260507020051 | 7 | 130 | 3.2 | 14.5 | 0.00 | 0.05 | 0.00 | 100 | |
| 20260507014551 | 7 | 142 | 4.8 | 14.5 | 0.00 | 0.05 | 0.00 | 100 | |
| 20260507013051 | 7 | 130 | 4.8 | 19.3 | 0.00 | 0.05 | 0.00 | 100 | |
| 20260507011551 | 7 | 71 | 8.0 | 12.9 | 0.00 | 0.05 | 0.00 | 100 | |
| 20260507010051 | 7 | 112 | 8.0 | 16.1 | 0.00 | 0.05 | 0.00 | 100 | |
| 20260507004551 | 7 | 113 | 9.7 | 16.1 | 0.00 | 0.05 | 0.00 | 100 | |
| 20260507003051 | 7 | 106 | 4.8 | 14.5 | 0.00 | 0.05 | 0.00 | 100 | |
| 20260507001551 | 7 | 92 | 3.2 | 12.9 | 0.00 | 0.05 | 0.00 | 100 | |
| 20260507000051 | 7 | 140 | 4.8 | 17.7 | 0.00 | 0.05 | 0.00 | 100 | |
| 20260506234551 | 7 | 52 | 9.7 | 11.3 | 0.00 | 0.05 | 0.00 | 100 | |
| 20260506233051 | 7 | 136 | 4.8 | 17.7 | 0.00 | 0.05 | 0.00 | 100 | |
| 20260506231551 | 7 | 22 | 3.2 | 16.1 | 0.00 | 0.05 | 0.00 | 100 | |
| 20260506230052 | 7 | 90 | 6.4 | 17.7 | 0.00 | 0.05 | 0.00 | 100 | |
| 20260506224552 | 7 | 39 | 9.7 | 19.3 | 0.00 | 0.05 | 0.00 | 100 | |
| 20260506223052 | 7 | 165 | 8.0 | 14.5 | 0.00 | 0.05 | 0.00 | 100 | |
| 20260506221552 | 7 | 73 | 8.0 | 27.4 | 0.00 | 0.05 | 0.00 | 100 | |
| 20260506220052 | 7 | 80 | 11.3 | 20.9 | 0.00 | 0.05 | 0.00 | 100 | |
| 20260506214552 | 7 | 87 | 4.8 | 17.7 | 0.00 | 0.05 | 0.00 | 100 | |
| 20260506213052 | 7 | 81 | 9.7 | 17.7 | 0.00 | 0.05 | 0.00 | 100 | |
| 20260506211552 | 7 | 111 | 6.4 | 14.5 | 0.00 | 0.05 | 0.00 | 100 | |
| 20260506210052 | 7 | 98 | 9.7 | 17.7 | 0.00 | 0.05 | 0.00 | 100 | |
| 20260506204552 | 7 | 91 | 9.7 | 16.1 | 0.00 | 0.05 | 0.00 | 100 | |
| 20260506203052 | 7 | 113 | 6.4 | 16.1 | 0.00 | 0.05 | 0.00 | 100 | |
| 20260506201552 | 7 | 77 | 4.8 | 17.7 | 0.00 | 0.05 | 0.00 | 100 | |
| 20260506200052 | 7 | 154 | 6.4 | 17.7 | 0.00 | 0.05 | 0.05 | 100 | |
| 20260506194552 | 7 | 118 | 9.7 | 14.5 | 0.00 | 0.05 | 0.05 | 100 | |
| 20260506193052 | 7 | 127 | 1.6 | 14.5 | 0.00 | 0.05 | 0.05 | 100 | |
| 20260506191552 | 7 | 102 | 3.2 | 24.1 | 0.00 | 0.05 | 0.05 | 100 | |
| 20260506190052 | 7 | 123 | 8.0 | 12.9 | 0.00 | 0.05 | 0.05 | 100 | |
| 20260506184553 | 7 | 80 | 8.0 | 17.7 | 0.00 | 0.05 | 0.05 | 100 | |
| 20260506183052 | 7 | 53 | 14.5 | 17.7 | 0.00 | 0.05 | 0.05 | 100 | |
| 20260506181553 | 7 | 71 | 11.3 | 19.3 | 0.00 | 0.05 | 0.05 | 100 | |
| 20260506180053 | 8 | 112 | 8.0 | 19.3 | 0.00 | 0.05 | 0.05 | 100 | |
| 20260506174553 | 8 | 80 | 6.4 | 22.5 | 0.00 | 0.05 | 0.05 | 100 | |
| 20260506173053 | 8 | 116 | 6.4 | 19.3 | 0.00 | 0.05 | 0.05 | 100 |